Flag for Norway Weather past 2 weeks in Grimstad, Norway

Now
61 °F

Cool.


Feels Like: 61 °F
Forecast: 53 / 63 °F
Wind: 6 mph from Southwest

Location: Torungen Fyr

Current Time: Aug 5, 2015 at 7:18:45 AM

Latest Report: Aug 5, 2015 at 5:00 AM


Visibility: N/A

Pressure: 29.86 "Hg

Humidity: 96%

Dew point: 60 °F

Location of GrimstadLocation

Historic Weather in Grimstad — Graph

°F

Grimstad temperature yesterday

Maximum temperature yesterday: 62 °F (at 8:00 AM)
Minimum temperature yesterday: 58 °F (at 12:00 AM)
Average temperature yesterday: 61 °F

Past Weeks' High & Low Weather Summary

 TemperatureHumidityPressure
High68 °F (Jul 31, 7:00 PM)97% (Aug 5, 12:00 AM)30.15 "Hg (Aug 5, 12:00 AM)
Low52 °F (Jul 27, 7:00 AM)35% (Jul 31, 8:00 PM)29.32 "Hg (Jul 29, 7:00 AM)
Average59 °F78%29.73 "Hg
* Reported Jul 21 4:00 AM — Aug 5 4:00 AM, Grimstad, Weather by CustomWeather, © 2015

Note: Actual official high and low records may vary slightly from our data, if they occured in-between our weather recording intervals... More about our weather records

Advertising

Grimstad weather history for previous 24 hours

 ConditionsComfort  
Time TempWeatherWind HumidityBarometerVisibility
4:00 AM
Wed, Aug 5
61 °FCool.3 mph97%29.85 "HgN/A
3:00 AM61 °FCool.3 mph97%29.86 "HgN/A
2:00 AM61 °FCool.5 mph96%29.86 "HgN/A
1:00 AM61 °FCool.6 mph96%29.87 "HgN/A
12:00 AM61 °FCool.6 mph97%29.87 "HgN/A
10:00 PM
Tue, Aug 4
61 °FCool.6 mph96%29.87 "HgN/A
9:00 PM61 °FCool.8 mph96%29.88 "HgN/A
8:00 PM61 °FCool.9 mph95%29.87 "HgN/A
7:00 PM60 °FCool.9 mph95%29.90 "HgN/A
6:00 PM60 °FCool.10 mph95%29.90 "HgN/A
5:00 PM61 °FCool.12 mph95%29.92 "HgN/A
4:00 PM60 °FCool.13 mph95%29.90 "HgN/A
3:00 PM60 °FCool.10 mph94%29.92 "HgN/A
2:00 PM60 °FCool.13 mph95%29.90 "HgN/A
1:00 PM60 °FCool.7 mph95%29.93 "HgN/A
12:00 PM61 °FCool.7 mph92%29.97 "HgN/A
11:00 AM61 °FCool.8 mph91%29.94 "HgN/A
10:00 AM62 °FCool.8 mph91%29.92 "HgN/A
9:00 AM62 °FCool.7 mph89%29.93 "HgN/A
8:00 AM62 °FCool.6 mph88%29.94 "HgN/A
7:00 AM61 °FCool.8 mph89%29.93 "HgN/A
Weather by CustomWeather, © 2015

See weather overviewHow to use our weather pages